Tracking 26321 objects as of 27-Nov-2022
HD Live streaming from Space Station
objects crossing your sky now

OBJECT E

Track OBJECT E now!
10-day predictions
OBJECT E is classified as:


NORAD ID: 53109
Int'l Code: 2022-080E
Perigee: 5,838.9 km
Apogee: 5,861.6 km
Inclination: 70.2 °
Period: 224.1 minutes
Semi major axis: 12221 km
RCS: Unknown
Launch date: July 13, 2022
Source: (TBD)
Launch site: FRENCH GUIANA (FRGUI)

Uplink (MHz):
Downlink (MHz): 435.310
Beacon (MHz):
Mode: 0k3/1k2/2k4/4k8/9k6 FSK
Call sign:
Status: Active

aabbcc
Your satellite tracking list
Your tracking list is empty




NASA's NSSDC Master Catalog

Two Line Element Set (TLE):
1 53109U 22080E   22330.55538620 -.00000003  00000-0  00000+0 0  9997
2 53109  70.1554  29.8908 0009304 216.1424 143.8607  6.42583391  8620
Source of the keplerian elements: AFSPC